Location: Boiro
(42.6475°N, 8.8834°W)
Time: 20:53:35
(UTC+01:00)

Vanguard 3 - Pass Details

Date: 01 December 2021
Orbit: 508 x 3260 km, 33.3° (Epoch: 17 January)

Event Time Altitude Azimuth Distance (km) Brightness Sun altitude
Rises 08:59:15 0° 264° (W) 7,112 11.5 1.3°
Reaches altitude 10° 09:04:29 10° 261° (W) 5,894 11.1 2.1°
Maximum altitude 09:20:56 56° 191° (S) 2,514 9.9 4.6°
Drops below altitude 10° 09:30:45 10° 116° (ESE) 3,666 12.7 6.0°
Sets 09:33:14 0° 112° (ESE) 4,348 12.7 6.4°
